OK1ZDJ-13 Weather Reports


time (UTC)temp
C
wind
direction
speed
KPH
gust
KPH
rain 1hr
cm
rain 24hr
cm
rain mn
cm
humidity
%
barometer
mb
20260905195102 17 0.0 0.0 0.00 0.00 0.00 53 1023.0
20260905194102 17 0.0 0.0 0.00 0.00 0.00 53 1022.8
20260905192101 17 0.0 0.0 0.00 0.00 0.00 53 1022.6
20260905191102 17 0.0 0.0 0.00 0.00 0.00 52 1022.6
20260905185103 17 0.0 0.0 0.00 0.00 0.00 51 1022.3
20260905184101 17 0.0 0.0 0.00 0.00 0.00 50 1022.2
20260905183101 18 0.0 0.0 0.00 0.00 0.00 49 1022.1
20260905181101 18 0.0 0.0 0.00 0.00 0.00 46 1021.8
20260905174103 19 0.0 0.0 0.00 0.00 0.00 43 1021.3
20260905173101 19 0.0 0.0 0.00 0.00 0.00 43 1021.3
20260905172101 20 0.0 0.0 0.00 0.00 0.00 42 1021.2
20260905171101 20 0.0 0.0 0.00 0.00 0.00 40 1021.2
20260905170101 20 0.0 0.0 0.00 0.00 0.00 40 1021.0
20260905165101 21 0.0 0.0 0.00 0.00 0.00 38 1020.9
20260905164102 21 0.0 0.0 0.00 0.00 0.00 38 1020.7
20260905163101 21 0.0 0.0 0.00 0.00 0.00 39 1020.7
20260905162102 21 0.0 0.0 0.00 0.00 0.00 38 1020.5
20260905161103 22 0.0 0.0 0.00 0.00 0.00 38 1020.4
20260905160101 22 0.0 0.0 0.00 0.00 0.00 37 1020.4
20260905155102 22 0.0 0.0 0.00 0.00 0.00 37 1020.3
20260905154101 21 0.0 0.0 0.00 0.00 0.00 38 1020.3
20260905153101 22 0.0 0.0 0.00 0.00 0.00 38 1020.3
20260905152101 22 0.0 0.0 0.00 0.00 0.00 37 1020.3
20260905151102 22 0.0 0.0 0.00 0.00 0.00 38 1020.2
20260905145102 22 0.0 0.0 0.00 0.00 0.00 39 1020.0
20260905144103 22 0.0 0.0 0.00 0.00 0.00 40 1020.0
20260905143102 22 0.0 0.0 0.00 0.00 0.00 40 1020.1
20260905142101 22 0.0 0.0 0.00 0.00 0.00 40 1020.1
20260905141106 22 0.0 0.0 0.00 0.00 0.00 41 1020.1
20260905140059 22 0.0 0.0 0.00 0.00 0.00 40 1020.0
20260905135100 21 0.0 0.0 0.00 0.00 0.00 41 1020.1
20260905134100 22 0.0 0.0 0.00 0.00 0.00 42 1020.3
20260905133100 21 0.0 0.0 0.00 0.00 0.00 41 1020.2
20260905132059 21 0.0 0.0 0.00 0.00 0.00 43 1020.2
20260905131059 21 0.0 0.0 0.00 0.00 0.00 44 1020.2
20260905130059 21 0.0 0.0 0.00 0.00 0.00 43 1020.3
20260905125100 21 0.0 0.0 0.00 0.00 0.00 42 1020.3
20260905124100 21 0.0 0.0 0.00 0.00 0.00 46 1020.4
20260905123100 21 0.0 0.0 0.00 0.00 0.00 43 1020.4
20260905122059 20 0.0 0.0 0.00 0.00 0.00 47 1020.7
20260905121100 20 0.0 0.0 0.00 0.00 0.00 49 1020.7
20260905120100 21 0.0 0.0 0.00 0.00 0.00 48 1020.7
20260905115102 22 0.0 0.0 0.00 0.00 0.00 49 1020.8
20260905114059 21 0.0 0.0 0.00 0.00 0.00 49 1020.7
20260905113100 20 0.0 0.0 0.00 0.00 0.00 47 1020.9
20260905112059 21 0.0 0.0 0.00 0.00 0.00 45 1020.8
20260905111059 21 0.0 0.0 0.00 0.00 0.00 49 1020.9
20260905110100 20 0.0 0.0 0.00 0.00 0.00 49 1020.9
20260905105059 20 0.0 0.0 0.00 0.00 0.00 51 1021.0
20260905104059 20 0.0 0.0 0.00 0.00 0.00 51 1021.0
20260905103059 19 0.0 0.0 0.00 0.00 0.00 54 1021.0
20260905102059 20 0.0 0.0 0.00 0.00 0.00 51 1020.9
20260905101059 19 0.0 0.0 0.00 0.00 0.00 54 1020.9
20260905100059 19 0.0 0.0 0.00 0.00 0.00 55 1020.9
20260905095059 20 0.0 0.0 0.00 0.00 0.00 58 1020.9
20260905094059 18 0.0 0.0 0.00 0.00 0.00 60 1020.9
20260905093059 18 0.0 0.0 0.00 0.00 0.00 63 1020.8
20260905092100 18 0.0 0.0 0.00 0.00 0.00 67 1020.9
20260905091100 17 0.0 0.0 0.00 0.00 0.00 72 1020.9
20260905090059 17 0.0 0.0 0.00 0.00 0.00 71 1020.9
20260905085100 17 0.0 0.0 0.00 0.00 0.00 70 1020.9
20260905084059 18 0.0 0.0 0.00 0.00 0.00 75 1020.8
20260905083059 17 0.0 0.0 0.00 0.00 0.00 75 1020.8
20260905082059 17 0.0 0.0 0.00 0.00 0.00 79 1020.7
20260905081104 17 0.0 0.0 0.00 0.00 0.00 78 1020.5
20260905080058 17 0.0 0.0 0.00 0.00 0.00 80 1020.4
20260905075058 17 0.0 0.0 0.00 0.00 0.00 80 1020.3
20260905074058 16 0.0 0.0 0.00 0.00 0.00 83 1020.2
20260905073058 16 0.0 0.0 0.00 0.00 0.00 85 1020.2
20260905072101 16 0.0 0.0 0.00 0.00 0.00 88 1020.2
20260905071058 16 0.0 0.0 0.00 0.00 0.00 88 1020.3
20260905070058 16 0.0 0.0 0.00 0.00 0.00 88 1020.2
20260905065058 16 0.0 0.0 0.00 0.00 0.00 88 1020.2
20260905064058 16 0.0 0.0 0.00 0.00 0.00 90 1020.2
20260905063058 15 0.0 0.0 0.00 0.00 0.00 96 1020.2
20260905062058 15 0.0 0.0 0.00 0.00 0.00 97 1020.1
20260905061058 15 0.0 0.0 0.00 0.00 0.00 98 1020.0
20260905060058 14 0.0 0.0 0.00 0.00 0.00 99 1019.9
20260905055058 14 0.0 0.0 0.00 0.00 0.00 99 1019.8
20260905054059 14 0.0 0.0 0.00 0.00 0.00 98 1019.6
20260905053058 14 0.0 0.0 0.00 0.00 0.00 98 1019.4
20260905052058 14 0.0 0.0 0.00 0.00 0.00 98 1019.2
20260905051058 14 0.0 0.0 0.00 0.00 0.00 98 1019.1
20260905045058 14 0.0 0.0 0.00 0.00 0.00 98 1018.8
20260905042059 14 0.0 0.0 0.00 0.00 0.00 96 1018.8
20260905041112 15 0.0 0.0 0.00 0.00 0.00 95 1018.7
20260905040058 15 0.0 0.0 0.00 0.00 0.00 93 1018.2
20260905035058 15 0.0 0.0 0.00 0.00 0.00 92 1018.7
20260905034058 15 0.0 0.0 0.00 0.00 0.00 91 1018.4
20260905033058 15 0.0 0.0 0.00 0.00 0.00 91 1019.0
20260905032058 16 0.0 0.0 0.00 0.00 0.00 92 1018.5
20260905031058 16 0.0 0.0 0.00 0.00 0.00 94 1018.1
20260905030058 16 0.0 0.0 0.00 0.00 0.00 98 1017.6
20260905025058 16 0.0 0.0 0.00 0.00 0.00 97 1017.6
20260905024058 16 0.0 0.0 0.00 0.00 0.00 95 1017.6
20260905023058 16 0.0 0.0 0.00 0.00 0.00 95 1017.4
20260905022101 16 0.0 0.0 0.00 0.00 0.00 93 1017.3
20260905021104 16 0.0 0.0 0.00 0.00 0.00 88 1017.2
20260905020058 17 0.0 0.0 0.00 0.00 0.00 90 1017.1
20260905015057 17 0.0 0.0 0.00 0.00 0.00 89 1017.0
20260905014057 17 0.0 0.0 0.00 0.00 0.00 87 1017.4
20260905013057 17 0.0 0.0 0.00 0.00 0.00 85 1016.8
20260905012057 17 0.0 0.0 0.00 0.00 0.00 87 1017.2
20260905011057 17 0.0 0.0 0.00 0.00 0.00 87 1016.9
20260905010057 17 0.0 0.0 0.00 0.00 0.00 87 1017.2
20260905005057 17 0.0 0.0 0.00 0.00 0.00 86 1016.7
20260905004057 17 0.0 0.0 0.00 0.00 0.00 85 1016.3
20260905003057 17 0.0 0.0 0.00 0.00 0.00 84 1016.7
20260905002057 17 0.0 0.0 0.00 0.00 0.00 82 1016.4
20260905001057 17 0.0 0.0 0.00 0.00 0.00 82 1016.8
20260905000057 18 0.0 0.0 0.00 0.00 0.00 81 1016.1
20260904235057 18 0.0 0.0 0.00 0.00 0.00 78 1016.1
20260904234057 18 0.0 0.0 0.00 0.00 0.00 73 1016.1
20260904232058 18 0.0 0.0 0.00 0.00 0.00 69 1015.4
20260904230056 18 0.0 0.0 0.00 0.00 0.00 68 1015.0
20260904225056 18 0.0 0.0 0.00 0.00 0.00 69 1014.8
20260904224056 18 0.0 0.0 0.00 0.00 0.00 69 1014.5
20260904223056 18 0.0 0.0 0.00 0.00 0.00 67 1014.4
20260904222056 18 0.0 0.0 0.00 0.00 0.00 67 1014.2
20260904221056 18 0.0 0.0 0.00 0.00 0.00 67 1013.9
20260904220059 19 0.0 0.0 0.00 0.00 0.00 67 1013.5
20260904215056 19 0.0 0.0 0.00 0.00 0.00 66 1013.0
20260904214056 19 0.0 0.0 0.00 0.00 0.00 65 1013.0
20260904213056 19 0.0 0.0 0.00 0.00 0.00 65 1012.7
20260904212056 20 0.0 0.0 0.00 0.00 0.00 65 1012.6
20260904211056 20 0.0 0.0 0.00 0.00 0.00 64 1012.4
20260904210056 20 0.0 0.0 0.00 0.00 0.00 63 1012.3
20260904205056 20 0.0 0.0 0.00 0.00 0.00 62 1012.3
20260904204056 21 0.0 0.0 0.00 0.00 0.00 61 1012.4
20260904203056 21 0.0 0.0 0.00 0.00 0.00 63 1012.4
20260904202056 22 0.0 0.0 0.00 0.00 0.00 65 1012.2
20260904201101 22 0.0 0.0 0.00 0.00 0.00 61 1011.6
20260904200055 22 0.0 0.0 0.00 0.00 0.00 60 1011.7